GW6696 Weather Reports


time (UTC)temp
C
wind
direction
speed
KPH
gust
KPH
rain 1hr
cm
rain 24hr
cm
rain mn
cm
humidity
%
barometer
mb
20260506094500 17 323 12.9 17.7 0.00 0.00 0.00 49 1013.7
20260506094000 18 322 12.9 17.7 0.00 0.00 0.00 49 1013.7
20260506093500 18 321 12.9 17.7 0.00 0.00 0.00 49 1013.8
20260506092959 18 322 12.9 17.7 0.00 0.00 0.00 48 1013.8
20260506092526 18 322 12.9 17.7 0.00 0.00 0.00 48 1013.8
20260506092020 18 324 12.9 17.7 0.00 0.00 0.00 48 1013.8
20260506091500 18 320 12.9 17.7 0.00 0.00 0.00 47 1013.7
20260506091019 18 320 12.9 17.7 0.00 0.00 0.00 47 1013.7
20260506090511 18 317 12.9 20.9 0.00 0.00 0.00 47 1013.7
20260506085959 18 313 14.5 19.3 0.00 0.00 0.00 47 1013.7
20260506085600 18 313 14.5 19.3 0.00 0.00 0.00 47 1013.7
20260506085103 18 315 14.5 19.3 0.00 0.00 0.00 47 1013.8
20260506084500 18 316 14.5 17.7 0.00 0.00 0.00 47 1013.8
20260506083959 18 322 16.1 19.3 0.00 0.00 0.00 47 1013.8
20260506083501 18 320 12.9 17.7 0.00 0.00 0.00 47 1013.8
20260506083019 18 318 12.9 16.1 0.00 0.00 0.00 48 1013.8
20260506082602 18 318 12.9 16.1 0.00 0.00 0.00 48 1013.8
20260506082058 18 319 12.9 17.7 0.00 0.00 0.00 47 1013.9
20260506081503 18 314 12.9 14.5 0.00 0.00 0.00 48 1013.9
20260506081025 18 314 12.9 14.5 0.00 0.00 0.00 48 1013.9
20260506080504 18 331 14.5 17.7 0.00 0.00 0.00 48 1013.8
20260506073500 18 331 12.9 19.3 0.00 0.00 0.00 46 1013.8
20260506073002 18 328 12.9 17.7 0.00 0.00 0.00 46 1013.8
20260506072611 18 328 12.9 17.7 0.00 0.00 0.00 46 1013.8
20260506072104 18 325 12.9 16.1 0.00 0.00 0.00 46 1013.8
20260506071543 18 327 14.5 19.3 0.00 0.00 0.00 46 1013.7
20260506071211 18 328 14.5 22.5 0.00 0.00 0.00 46 1013.7
20260506070642 18 325 14.5 17.7 0.00 0.00 0.00 46 1013.6
20260506062018 19 330 12.9 17.7 0.00 0.00 0.00 45 1013.1
20260506061459 19 328 14.5 19.3 0.00 0.00 0.00 45 1013.1
20260506061020 19 328 14.5 19.3 0.00 0.00 0.00 45 1013.1
20260506060527 20 330 14.5 17.7 0.00 0.00 0.00 44 1013.1
20260506051018 20 322 14.5 19.3 0.00 0.00 0.00 42 1012.7
20260506050501 20 329 16.1 22.5 0.00 0.00 0.00 42 1012.6
20260506045058 21 328 14.5 22.5 0.00 0.00 0.00 41 1012.5
20260506044459 21 326 16.1 20.9 0.00 0.00 0.00 41 1012.4
20260506044023 21 317 16.1 22.5 0.00 0.00 0.00 41 1012.3
20260506043522 21 312 16.1 24.1 0.00 0.00 0.00 41 1012.2
20260506043006 21 312 14.5 22.5 0.00 0.00 0.00 41 1012.1
20260506042618 21 312 14.5 22.5 0.00 0.00 0.00 41 1012.1
20260506042110 21 313 16.1 22.5 0.00 0.00 0.00 40 1012.0
20260506041515 21 313 17.7 27.4 0.00 0.00 0.00 40 1011.8
20260506041045 21 320 17.7 25.7 0.00 0.00 0.00 40 1011.7
20260506040522 21 330 24.1 37.0 0.00 0.00 0.00 40 1011.5
20260506035959 21 335 24.1 33.8 0.00 0.00 0.00 39 1011.2
20260506035513 21 335 24.1 33.8 0.00 0.00 0.00 39 1011.2
20260506035040 22 331 20.9 30.6 0.00 0.00 0.00 39 1011.2
20260506034501 22 326 20.9 29.0 0.00 0.00 0.00 38 1011.2
20260506034001 22 328 24.1 33.8 0.00 0.00 0.00 38 1011.1
20260506033459 22 327 24.1 35.4 0.00 0.00 0.00 38 1011.0
20260506032959 22 326 17.7 29.0 0.00 0.00 0.00 37 1011.0
20260506032604 22 326 17.7 29.0 0.00 0.00 0.00 37 1011.0
20260506032100 22 327 12.9 17.7 0.00 0.00 0.00 37 1010.9
20260506031500 22 317 17.7 32.2 0.00 0.00 0.00 36 1010.8
20260506031041 22 317 17.7 32.2 0.00 0.00 0.00 36 1010.8
20260506030504 23 309 11.3 19.3 0.00 0.00 0.00 34 1010.5
20260506025958 23 308 12.9 17.7 0.00 0.00 0.00 33 1010.3
20260506025537 23 308 12.9 17.7 0.00 0.00 0.00 33 1010.3
20260506025027 23 301 11.3 17.7 0.00 0.00 0.00 33 1010.2
20260506024520 23 306 11.3 14.5 0.00 0.00 0.00 32 1010.0
20260506024000 24 294 14.5 19.3 0.00 0.00 0.00 31 1009.9
20260506023502 24 288 12.9 19.3 0.00 0.00 0.00 31 1009.8
20260506023032 24 288 12.9 19.3 0.00 0.00 0.00 31 1009.8
20260506022613 24 288 8.0 12.9 0.00 0.00 0.00 32 1009.7
20260506022107 24 254 12.9 20.9 0.00 0.00 0.00 32 1009.6
20260506021459 23 242 22.5 30.6 0.00 0.00 0.00 32 1009.4
20260506021041 23 242 22.5 30.6 0.00 0.00 0.00 32 1009.4
20260506020522 24 242 25.7 33.8 0.00 0.00 0.00 32 1009.3
20260506020000 24 237 27.4 37.0 0.00 0.00 0.00 32 1009.2
20260506015550 24 237 27.4 37.0 0.00 0.00 0.00 32 1009.2
20260506015052 24 232 25.7 37.0 0.00 0.00 0.00 32 1009.1
20260506014500 24 233 30.6 40.2 0.00 0.00 0.00 32 1009.0
20260506014000 24 241 32.2 46.7 0.00 0.00 0.00 31 1008.9
20260506013501 24 244 30.6 40.2 0.00 0.00 0.00 31 1008.9
20260506013000 24 239 30.6 43.5 0.00 0.00 0.00 31 1008.9
20260506012610 24 239 30.6 43.5 0.00 0.00 0.00 31 1008.9
20260506012105 24 230 29.0 40.2 0.00 0.00 0.00 31 1008.8
20260506011500 24 235 33.8 43.5 0.00 0.00 0.00 31 1008.9
20260506011041 24 235 33.8 43.5 0.00 0.00 0.00 31 1008.9
20260506010501 24 237 35.4 48.3 0.00 0.00 0.00 31 1008.8
20260506010000 25 242 27.4 37.0 0.00 0.00 0.00 30 1008.8
20260506005526 25 242 27.4 37.0 0.00 0.00 0.00 30 1008.8
20260506005028 25 245 29.0 38.6 0.00 0.00 0.00 30 1008.8
20260506004501 25 248 33.8 43.5 0.00 0.00 0.00 30 1008.8
20260506004000 25 246 33.8 48.3 0.00 0.00 0.00 29 1008.8
20260506003501 25 244 30.6 48.3 0.00 0.00 0.00 29 1008.8
20260506003001 25 246 32.2 43.5 0.00 0.00 0.00 29 1008.8
20260506002607 25 246 32.2 43.5 0.00 0.00 0.00 29 1008.8
20260506002100 25 249 32.2 46.7 0.00 0.00 0.00 28 1008.8
20260506001521 25 247 30.6 43.5 0.00 0.00 0.00 28 1008.7
20260506001019 25 247 30.6 43.5 0.00 0.00 0.00 28 1008.7
20260506000510 25 248 33.8 45.1 0.00 0.00 0.00 28 1008.8
20260506000001 25 246 38.6 49.9 0.00 0.00 0.00 28 1008.9
20260505235616 25 246 38.6 49.9 0.00 0.00 0.00 28 1008.9
20260505235129 25 240 41.8 53.1 0.00 0.00 0.00 28 1008.9
20260505234501 25 240 38.6 54.7 0.00 0.00 0.00 28 1008.8
20260505234024 25 236 40.2 56.3 0.00 0.00 0.00 28 1008.9
20260505233506 25 238 43.5 56.3 0.00 0.00 0.00 28 1008.7
20260505233002 25 237 38.6 51.5 0.00 0.00 0.00 28 1008.8
20260505232610 25 237 38.6 51.5 0.00 0.00 0.00 28 1008.8
20260505232100 25 238 35.4 48.3 0.00 0.00 0.00 27 1008.8
20260505231501 25 238 37.0 54.7 0.00 0.00 0.00 28 1008.9
20260505231020 25 238 37.0 54.7 0.00 0.00 0.00 28 1008.9
20260505230501 25 233 38.6 51.5 0.00 0.00 0.00 27 1008.9
20260505230005 26 238 32.2 43.5 0.00 0.00 0.00 27 1009.1
20260505225602 26 238 32.2 43.5 0.00 0.00 0.00 27 1009.1
20260505225054 25 235 33.8 45.1 0.00 0.00 0.00 27 1009.0
20260505224500 25 263 24.1 37.0 0.00 0.00 0.00 27 1009.3
20260505224000 26 242 33.8 46.7 0.00 0.00 0.00 27 1009.3
20260505223501 25 247 33.8 46.7 0.00 0.00 0.00 27 1009.3
20260505223000 25 238 30.6 45.1 0.00 0.00 0.00 28 1009.5
20260505222601 25 238 30.6 45.1 0.00 0.00 0.00 28 1009.5
20260505222100 25 241 30.6 48.3 0.00 0.00 0.00 28 1009.6
20260505221500 25 238 32.2 49.9 0.00 0.00 0.00 29 1009.8
20260505221019 25 238 32.2 49.9 0.00 0.00 0.00 29 1009.8
20260505220503 25 262 20.9 38.6 0.00 0.00 0.00 28 1010.0
20260505220003 25 340 20.9 48.3 0.00 0.00 0.00 29 1009.8
20260505215551 25 340 20.9 48.3 0.00 0.00 0.00 29 1009.8
20260505215104 25 237 12.9 25.7 0.00 0.00 0.00 29 1010.1
20260505214500 25 64 6.4 19.3 0.00 0.00 0.00 31 1010.2
20260505214002 25 339 6.4 12.9 0.00 0.00 0.00 31 1010.4
20260505213506 25 23 9.7 16.1 0.00 0.00 0.00 32 1010.4
20260505213016 25 23 9.7 16.1 0.00 0.00 0.00 32 1010.4
20260505212629 24 40 14.5 22.5 0.00 0.00 0.00 34 1010.5
20260505212108 24 81 12.9 24.1 0.00 0.00 0.00 34 1010.5
20260505211501 25 24 19.3 32.2 0.00 0.00 0.00 35 1010.6
20260505211042 25 24 19.3 32.2 0.00 0.00 0.00 35 1010.6
20260505210501 25 356 9.7 19.3 0.00 0.00 0.00 31 1010.8
20260505210000 25 342 19.3 30.6 0.00 0.00 0.00 31 1010.7
20260505205600 25 342 19.3 30.6 0.00 0.00 0.00 31 1010.7
20260505205037 25 247 25.7 46.7 0.00 0.00 0.00 29 1010.6
20260505204500 24 112 12.9 29.0 0.00 0.00 0.00 34 1010.7
20260505204000 24 45 11.3 22.5 0.00 0.00 0.00 33 1010.8
20260505203501 24 31 11.3 19.3 0.00 0.00 0.00 35 1011.0
20260505203016 24 31 11.3 19.3 0.00 0.00 0.00 35 1011.0
20260505202627 25 262 25.7 35.4 0.00 0.00 0.00 30 1010.9
20260505202122 25 251 32.2 41.8 0.00 0.00 0.00 30 1010.8
20260505201523 24 258 27.4 40.2 0.00 0.00 0.00 30 1011.0
20260505201026 24 258 27.4 40.2 0.00 0.00 0.00 30 1011.0
20260505200520 24 258 27.4 43.5 0.00 0.00 0.00 30 1011.0
20260505200033 24 234 29.0 40.2 0.00 0.00 0.00 30 1011.1
20260505195654 24 254 27.4 40.2 0.00 0.00 0.00 30 1011.1
20260505195102 24 242 33.8 53.1 0.00 0.00 0.00 30 1011.1
20260505194500 23 240 37.0 61.2 0.00 0.00 0.00 30 1011.4
20260505194000 23 250 35.4 49.9 0.00 0.00 0.00 30 1011.4
20260505193522 23 260 24.1 40.2 0.00 0.00 0.00 31 1011.6
20260505193000 22 344 12.9 20.9 0.00 0.00 0.00 37 1011.6
20260505192558 22 344 12.9 20.9 0.00 0.00 0.00 37 1011.6
20260505192056 23 32 12.9 27.4 0.00 0.00 0.00 35 1011.5
20260505191500 22 66 12.9 17.7 0.00 0.00 0.00 41 1011.9
20260505191021 22 66 12.9 17.7 0.00 0.00 0.00 41 1011.9
20260505190521 21 71 12.9 16.1 0.00 0.00 0.00 42 1012.0
20260505190000 21 57 11.3 17.7 0.00 0.00 0.00 42 1012.1
20260505185544 21 57 11.3 17.7 0.00 0.00 0.00 42 1012.1
20260505185103 21 68 12.9 17.7 0.00 0.00 0.00 41 1012.1
20260505184501 21 67 12.9 19.3 0.00 0.00 0.00 43 1012.2
20260505184000 21 67 12.9 17.7 0.00 0.00 0.00 43 1012.3
20260505183501 21 65 12.9 17.7 0.00 0.00 0.00 44 1012.3
20260505183001 21 76 11.3 16.1 0.00 0.00 0.00 44 1012.2
20260505182609 21 76 11.3 16.1 0.00 0.00 0.00 44 1012.2
20260505182050 21 67 11.3 16.1 0.00 0.00 0.00 46 1012.2
20260505181500 21 35 8.0 14.5 0.00 0.00 0.00 45 1012.3
20260505181020 21 35 8.0 14.5 0.00 0.00 0.00 45 1012.3
20260505180503 21 62 11.3 14.5 0.00 0.00 0.00 46 1012.2
20260505180002 21 54 11.3 14.5 0.00 0.00 0.00 46 1012.2
20260505175558 21 54 11.3 14.5 0.00 0.00 0.00 46 1012.2
20260505175106 21 47 11.3 17.7 0.00 0.00 0.00 46 1012.1
20260505174500 20 44 9.7 12.9 0.00 0.00 0.00 48 1012.1
20260505174001 20 56 9.7 12.9 0.00 0.00 0.00 48 1012.0
20260505173523 20 50 9.7 12.9 0.00 0.00 0.00 48 1012.0
20260505173021 20 57 9.7 12.9 0.00 0.00 0.00 47 1012.0
20260505172550 20 57 9.7 12.9 0.00 0.00 0.00 47 1012.0
20260505172044 20 61 9.7 14.5 0.00 0.00 0.00 47 1012.0
20260505171459 20 42 9.7 16.1 0.00 0.00 0.00 48 1011.9
20260505171028 20 42 9.7 16.1 0.00 0.00 0.00 48 1011.9
20260505170640 20 40 9.7 14.5 0.00 0.00 0.00 48 1012.0
20260505170057 20 34 12.9 16.1 0.00 0.00 0.00 48 1011.9
20260505165616 20 40 12.9 17.7 0.00 0.00 0.00 48 1011.8
20260505165104 20 53 9.7 12.9 0.00 0.00 0.00 48 1011.8
20260505164501 20 35 11.3 14.5 0.00 0.00 0.00 47 1011.9
20260505164000 20 19 11.3 14.5 0.00 0.00 0.00 48 1011.9
20260505163523 20 9 9.7 12.9 0.00 0.00 0.00 47 1011.9
20260505163009 20 24 9.7 12.9 0.00 0.00 0.00 47 1011.8
20260505162637 20 24 9.7 12.9 0.00 0.00 0.00 47 1011.8
20260505162229 20 23 9.7 11.3 0.00 0.00 0.00 47 1011.8
20260505161500 20 12 8.0 11.3 0.00 0.00 0.00 47 1011.8
20260505161023 20 12 8.0 11.3 0.00 0.00 0.00 47 1011.8
20260505160628 20 360 8.0 12.9 0.00 0.00 0.00 46 1011.8
20260505153208 19 1 9.7 14.5 0.00 0.00 0.00 50 1011.6
20260505152828 19 350 9.7 12.9 0.00 0.00 0.00 50 1011.6
20260505152419 18 355 8.0 12.9 0.00 0.00 0.00 51 1011.6
20260505151501 18 349 9.7 14.5 0.00 0.00 0.00 52 1011.5
20260505151026 18 349 9.7 14.5 0.00 0.00 0.00 52 1011.5
20260505150634 18 356 11.3 14.5 0.00 0.00 0.00 51 1011.5
20260505140551 17 349 9.7 12.9 0.00 0.00 0.00 54 1011.4
20260505124501 17 300 8.0 9.7 0.00 0.00 0.00 53 1010.8
20260505124002 17 336 9.7 12.9 0.00 0.00 0.00 54 1010.7
20260505123526 17 336 9.7 12.9 0.00 0.00 0.00 54 1010.7
20260505123039 17 349 9.7 12.9 0.00 0.00 0.00 53 1010.7
20260505122641 17 344 9.7 12.9 0.00 0.00 0.00 54 1010.7
20260505122141 17 350 11.3 17.7 0.00 0.00 0.00 52 1010.7
20260505121622 18 14 8.0 12.9 0.00 0.00 0.00 52 1010.7
20260505121244 18 26 8.0 12.9 0.00 0.00 0.00 52 1010.7
20260505120837 18 50 4.8 9.7 0.00 0.00 0.00 51 1010.7
20260505120233 18 67 4.8 6.4 0.00 0.00 0.00 50 1010.8
20260505115805 18 84 6.4 8.0 0.00 0.00 0.00 50 1010.8
20260505115226 18 101 4.8 6.4 0.00 0.00 0.00 50 1010.8
20260505114520 18 122 6.4 8.0 0.00 0.00 0.00 50 1010.8
20260505114021 17 125 6.4 8.0 0.00 0.00 0.00 51 1010.8
20260505113541 17 91 4.8 8.0 0.00 0.00 0.00 51 1010.9
20260505113022 17 149 3.2 6.4 0.00 0.00 0.00 52 1010.9
20260505112608 17 161 3.2 6.4 0.00 0.00 0.00 52 1010.9
20260505112044 17 115 1.6 4.8 0.00 0.00 0.00 51 1010.9
20260505111502 17 87 3.2 6.4 0.00 0.00 0.00 51 1010.9
20260505111111 17 87 3.2 6.4 0.00 0.00 0.00 51 1010.9
20260505110700 17 142 1.6 4.8 0.00 0.00 0.00 51 1010.9
20260505110139 17 182 4.8 6.4 0.00 0.00 0.00 51 1010.8
20260505102123 17 324 12.9 14.5 0.00 0.00 0.00 51 1010.6
20260505101531 17 332 11.3 12.9 0.00 0.00 0.00 52 1010.5
20260505101107 17 344 11.3 14.5 0.00 0.00 0.00 51 1010.6
20260505100609 17 337 12.9 16.1 0.00 0.00 0.00 50 1010.6
20260505100038 18 331 11.3 12.9 0.00 0.00 0.00 49 1010.7
20260505095602 18 336 11.3 12.9 0.00 0.00 0.00 48 1010.6
20260505095047 17 332 11.3 12.9 0.00 0.00 0.00 48 1010.6